Temp
-21 -21 -21 -21 -20 -20 -20 -19 -19 -19 -19 -20 -19 -18 -17 -17 -16 -16 -15 -15 -15 -15 -14 -13 -13 -12 -12 -12 -12 -12 -12 -12 -12 -12 -12 -13 -12 -13 -11 -12 -11 -11 -11 -12 -11 -12 -12 -11 -11 -11 -10 -10 -10 -10
-22 -22 -22 -21 -21 -20 -20 -20 -20 -19 -19 -19 -19 -20 -19 -17 -17 -16 -16 -15 -15 -14 -14 -14 -13 -13 -13 -12 -12 -12 -12 -12 -12 -12 -12 -12 -11 -11 -11 -13 -11 -11 -11 -12 -12 -12 -12 -11 -11 -10 -10 -10 -10 -10
-23 -23 -22 -22 -22 -21 -21 -20 -20 -20 -19 -19 -19 -19 -19 -19 -18 -17 -16 -16 -15 -15 -15 -14 -14 -13 -13 -13 -13 -12 -12 -12 -12 -12 -12 -12 -12 -11 -12 -12 -11 -11 -11 -11 -11 -11 -11 -11 -11 -10 -10 -10 -10 -10
-23 -23 -23 -22 -22 -22 -21 -21 -21 -20 -20 -19 -19 -19 -18 -18 -18 -17 -17 -16 -16 -15 -15 -15 -14 -14 -14 -13 -13 -13 -13 -12 -12 -12 -12 -12 -12 -12 -12 -11 -11 -12 -11 -11 -11 -11 -11 -11 -11 -11 -11 -11 -11 -11
-24 -24 -24 -23 -22 -22 -22 -22 -21 -21 -20 -20 -20 -19 -19 -18 -18 -18 -17 -17 -17 -16 -16 -15 -15 -15 -14 -14 -13 -13 -13 -13 -13 -13 -13 -13 -12 -12 -12 -12 -12 -12 -12 -12 -12 -11 -11 -11 -11 -11 -11 -11 -11 -11
-24 -24 -24 -24 -23 -23 -22 -22 -22 -21 -21 -21 -20 -20 -19 -19 -19 -18 -18 -17 -17 -17 -16 -16 -16 -15 -15 -14 -14 -14 -14 -13 -13 -13 -13 -13 -13 -13 -12 -12 -12 -12 -12 -12 -12 -12 -11 -11 -11 -11 -11 -11 -11 -11
-25 -24 -24 -24 -23 -23 -23 -23 -22 -22 -21 -21 -20 -20 -20 -19 -19 -19 -19 -18 -18 -17 -17 -16 -16 -16 -15 -15 -15 -14 -14 -14 -14 -14 -14 -14 -13 -13 -13 -13 -13 -13 -13 -13 -12 -12 -11 -11 -11 -12 -12 -12 -12 -12
-25 -25 -25 -24 -24 -24 -23 -23 -23 -22 -22 -21 -21 -21 -20 -20 -20 -19 -19 -19 -18 -18 -17 -17 -16 -16 -16 -16 -15 -15 -15 -15 -14 -14 -14 -14 -14 -14 -13 -14 -14 -13 -13 -13 -13 -12 -12 -12 -12 -12 -12 -13 -13 -13
-25 -26 -25 -25 -25 -24 -24 -24 -23 -23 -22 -22 -21 -21 -21 -20 -20 -20 -20 -19 -19 -19 -18 -18 -17 -17 -17 -16 -16 -16 -16 -15 -15 -15 -15 -15 -14 -14 -14 -14 -15 -14 -14 -14 -13 -13 -13 -13 -13 -13 -13 -13 -13 -14
-25 -25 -26 -26 -25 -25 -24 -24 -24 -24 -23 -23 -22 -22 -21 -21 -21 -20 -20 -20 -19 -19 -19 -18 -18 -18 -17 -17 -17 -17 -17 -16 -16 -16 -16 -15 -15 -15 -15 -15 -15 -15 -14 -14 -14 -14 -14 -14 -14 -14 -14 -14 -14 -14
-26 -26 -26 -26 -26 -26 -25 -25 -24 -24 -24 -23 -23 -23 -22 -22 -21 -21 -20 -20 -19 -19 -19 -19 -18 -18 -18 -17 -17 -17 -17 -17 -17 -16 -17 -16 -16 -16 -16 -16 -15 -15 -15 -15 -15 -15 -15 -15 -15 -15 -15 -14 -15 -15
-26 -26 -26 -26 -26 -26 -26 -25 -25 -24 -24 -24 -23 -23 -23 -22 -22 -21 -21 -20 -20 -19 -19 -19 -18 -18 -18 -18 -18 -18 -17 -17 -17 -17 -17 -16 -17 -16 -17 -16 -16 -16 -16 -16 -15 -15 -15 -16 -16 -16 -16 -15 -15 -15
-26 -26 -26 -26 -26 -26 -26 -25 -25 -25 -24 -24 -24 -23 -23 -23 -22 -22 -21 -21 -20 -20 -20 -19 -19 -18 -18 -18 -18 -18 -18 -17 -17 -17 -16 -17 -17 -17 -16 -16 -16 -16 -16 -17 -16 -16 -16 -16 -16 -16 -16 -16 -15 -15
-26 -26 -26 -26 -26 -26 -26 -25 -25 -25 -24 -24 -24 -23 -23 -23 -23 -22 -22 -21 -21 -20 -20 -20 -19 -19 -18 -18 -18 -18 -18 -18 -17 -17 -18 -17 -16 -16 -16 -17 -17 -17 -17 -17 -17 -17 -17 -17 -17 -17 -16 -16 -16 -16
-28 -27 -27 -27 -26 -26 -26 -26 -26 -26 -25 -25 -24 -24 -24 -23 -23 -23 -22 -21 -21 -21 -21 -20 -20 -19 -19 -18 -18 -18 -18 -17 -17 -17 -17 -17 -17 -16 -17 -17 -18 -18 -19 -18 -18 -17 -17 -17 -17 -17 -17 -16 -16 -17
-28 -28 -28 -28 -27 -27 -27 -27 -26 -26 -25 -25 -25 -25 -24 -24 -24 -23 -22 -21 -21 -21 -21 -20 -20 -19 -19 -19 -18 -18 -18 -18 -17 -17 -17 -17 -17 -16 -17 -18 -19 -20 -20 -19 -17 -17 -17 -17 -17 -17 -17 -17 -17 -17
-28 -28 -27 -27 -28 -27 -27 -26 -26 -26 -26 -25 -25 -25 -24 -24 -24 -24 -23 -22 -21 -21 -21 -20 -20 -19 -19 -19 -18 -18 -18 -18 -18 -17 -17 -16 -16 -17 -17 -19 -19 -20 -19 -18 -18 -17 -17 -17 -17 -17 -17 -17 -17 -17
-27 -27 -27 -28 -28 -28 -27 -27 -27 -26 -26 -25 -25 -25 -24 -24 -24 -24 -23 -22 -22 -21 -20 -20 -19 -19 -19 -18 -18 -18 -18 -18 -18 -17 -17 -16 -16 -16 -17 -18 -18 -18 -18 -18 -17 -17 -17 -17 -17 -17 -18 -17 -17 -17
-26 -27 -27 -27 -27 -27 -27 -26 -26 -26 -25 -25 -25 -24 -24 -23 -23 -23 -22 -21 -21 -20 -20 -20 -19 -19 -19 -19 -18 -18 -18 -18 -18 -17 -17 -17 -17 -17 -17 -17 -17 -17 -18 -17 -17 -17 -17 -18 -17 -17 -17 -17 -17 -17
-24 -24 -25 -25 -25 -25 -25 -25 -24 -24 -24 -23 -23 -23 -22 -22 -21 -21 -21 -20 -20 -20 -20 -20 -19 -19 -19 -19 -18 -18 -18 -18 -18 -18 -18 -17 -17 -17 -17 -17 -18 -18 -18 -17 -17 -17 -17 -17 -17 -17 -17 -17 -17 -17
-23 -23 -23 -23 -23 -23 -23 -23 -23 -22 -22 -22 -21 -21 -21 -20 -20 -20 -20 -20 -20 -19 -19 -19 -19 -19 -18 -18 -18 -19 -18 -18 -18 -18 -18 -18 -17 -18 -17 -17 -17 -17 -17 -17 -17 -17 -17 -17 -17 -17 -17 -17 -17 -17
-22 -22 -22 -22 -22 -22 -22 -22 -22 -22 -21 -21 -20 -20 -20 -20 -19 -19 -19 -20 -19 -19 -19 -19 -19 -19 -19 -19 -19 -18 -18 -18 -18 -18 -18 -18 -18 -18 -17 -17 -17 -17 -17 -17 -17 -17 -17 -17 -17 -17 -17 -17 -18 -18
-21 -21 -21 -21 -21 -21 -21 -20 -20 -20 -20 -20 -20 -19 -19 -19 -19 -19 -19 -19 -19 -19 -19 -19 -19 -19 -19 -19 -18 -18 -18 -18 -18 -18 -18 -18 -17 -17 -17 -17 -17 -17 -17 -17 -17 -17 -17 -17 -17 -18 -18 -18 -18 -18
-20 -20 -20 -21 -21 -20 -20 -20 -20 -20 -20 -19 -19 -19 -19 -18 -19 -19 -19 -19 -19 -19 -19 -19 -19 -19 -19 -18 -18 -18 -18 -18 -18 -18 -18 -18 -18 -18 -18 -17 -17 -17 -17 -18 -18 -18 -18 -18 -18 -18 -18 -18 -18 -18
-20 -20 -20 -20 -20 -20 -20 -19 -19 -19 -19 -19 -19 -19 -19 -19 -19 -19 -19 -19 -19 -19 -19 -19 -19 -19 -19 -18 -18 -18 -18 -18 -18 -18 -18 -18 -18 -18 -18 -18 -18 -18 -18 -18 -18 -18 -18 -18 -18 -18 -18 -18 -18 -18
-19 -20 -20 -20 -20 -19 -19 -19 -19 -19 -19 -19 -19 -19 -19 -19 -19 -18 -19 -19 -19 -19 -19 -19 -19 -19 -18 -18 -18 -19 -18 -18 -18 -18 -18 -18 -18 -18 -18 -18 -18 -18 -18 -18 -18 -18 -18 -18 -18 -18 -18 -18 -18 -18
-19 -20 -20 -20 -19 -19 -19 -19 -19 -19 -19 -19 -19 -19 -19 -19 -18 -18 -19 -19 -19 -19 -19 -18 -18 -18 -18 -18 -18 -18 -18 -18 -18 -18 -18 -18 -18 -18 -18 -18 -18 -18 -18 -18 -18 -18 -18 -18 -18 -18 -18 -18 -18 -18
-19 -19 -19 -19 -19 -19 -19 -19 -19 -19 -19 -19 -19 -19 -19 -18 -18 -18 -18 -18 -18 -19 -18 -19 -19 -18 -18 -18 -18 -18 -18 -18 -18 -18 -18 -18 -18 -18 -18 -18 -18 -18 -18 -18 -18 -18 -19 -19 -19 -19 -19 -19 -19 -19
-19 -19 -19 -19 -19 -19 -19 -19 -19 -19 -19 -19 -19 -19 -19 -19 -19 -19 -19 -19 -19 -19 -19 -19 -18 -18 -18 -18 -18 -18 -18 -18 -18 -18 -18 -18 -18 -18 -18 -18 -18 -18 -18 -18 -19 -19 -19 -19 -19 -19 -19 -19 -20 -20
-19 -19 -19 -19 -19 -19 -19 -19 -19 -19 -19 -19 -19 -19 -19 -19 -19 -19 -19 -19 -18 -18 -18 -18 -19 -19 -18 -18 -18 -18 -18 -18 -18 -18 -18 -18 -18 -18 -18 -18 -18 -18 -18 -18 -18 -19 -19 -19 -19 -19 -20 -20 -20 -20
-18 -19 -19 -19 -19 -19 -19 -19 -19 -19 -19 -19 -19 -19 -19 -19 -19 -19 -18 -18 -18 -18 -18 -18 -18 -18 -18 -19 -19 -19 -19 -18 -18 -18 -18 -18 -18 -18 -18 -18 -18 -18 -18 -18 -18 -18 -19 -19 -19 -19 -19 -20 -20 -21
-19 -19 -19 -19 -19 -19 -19 -18 -19 -19 -19 -19 -19 -19 -18 -18 -18 -18 -18 -18 -18 -18 -18 -18 -19 -19 -19 -19 -19 -18 -18 -18 -18 -18 -18 -18 -18 -18 -18 -18 -18 -18 -18 -18 -18 -19 -19 -20 -20 -20 -21 -21 -21 -22
-19 -19 -19 -19 -19 -19 -18 -19 -18 -18 -18 -18 -18 -18 -18 -18 -18 -18 -18 -18 -18 -18 -18 -18 -18 -18 -18 -18 -18 -18 -18 -17 -17 -17 -17 -17 -17 -17 -17 -17 -18 -18 -18 -19 -19 -19 -20 -20 -21 -22 -22 -22 -23 -23
Height
5608 5609 5612 5615 5618 5622 5626 5630 5634 5637 5641 5645 5648 5654 5660 5667 5672 5677 5682 5688 5693 5698 5703 5709 5715 5721 5726 5732 5737 5744 5749 5754 5760 5765 5771 5775 5780 5784 5787 5792 5794 5802 5805 5808 5810 5812 5814 5811 5812 5815 5815 5816 5817 5817
5593 5594 5597 5600 5604 5609 5613 5618 5622 5626 5631 5636 5640 5644 5649 5656 5663 5668 5673 5678 5683 5689 5696 5700 5705 5711 5717 5723 5729 5733 5739 5745 5751 5756 5760 5764 5770 5774 5778 5783 5786 5791 5793 5799 5800 5803 5799 5801 5803 5804 5804 5805 5806 5806
5578 5580 5583 5587 5591 5596 5601 5606 5611 5616 5621 5626 5632 5637 5643 5647 5653 5659 5664 5669 5675 5680 5686 5691 5697 5703 5708 5713 5719 5724 5729 5735 5740 5746 5751 5755 5758 5765 5768 5772 5773 5779 5782 5785 5789 5788 5790 5790 5791 5792 5792 5793 5793 5795
5564 5566 5570 5574 5578 5583 5589 5595 5600 5606 5611 5617 5622 5628 5634 5639 5645 5650 5655 5661 5666 5671 5676 5683 5688 5694 5699 5704 5710 5715 5720 5725 5730 5735 5740 5745 5749 5754 5756 5760 5765 5765 5770 5773 5776 5776 5778 5778 5780 5780 5779 5780 5781 5782
5551 5554 5558 5562 5565 5570 5576 5583 5590 5595 5602 5608 5613 5619 5624 5630 5636 5642 5647 5653 5658 5664 5668 5674 5679 5685 5691 5696 5701 5706 5711 5715 5720 5724 5729 5733 5738 5743 5745 5750 5753 5755 5756 5761 5762 5764 5767 5767 5766 5766 5767 5767 5768 5769
5538 5541 5546 5550 5554 5559 5564 5571 5579 5586 5592 5599 5605 5611 5616 5621 5627 5633 5640 5645 5651 5656 5661 5667 5672 5676 5682 5688 5693 5698 5702 5706 5710 5714 5719 5723 5727 5730 5734 5739 5740 5742 5744 5745 5748 5751 5753 5754 5754 5755 5756 5757 5757 5757
5526 5529 5533 5538 5544 5549 5554 5560 5567 5575 5582 5589 5596 5602 5607 5613 5619 5625 5632 5637 5643 5649 5653 5659 5665 5670 5674 5679 5684 5689 5693 5698 5702 5706 5709 5712 5715 5719 5724 5728 5728 5731 5730 5731 5734 5737 5738 5739 5742 5743 5744 5744 5744 5744
5514 5517 5521 5526 5532 5539 5545 5550 5557 5564 5572 5579 5586 5593 5599 5606 5612 5618 5623 5629 5635 5641 5647 5652 5658 5664 5668 5672 5677 5681 5685 5689 5693 5697 5700 5703 5706 5709 5714 5717 5714 5715 5717 5720 5723 5726 5728 5729 5729 5729 5731 5731 5731 5731
5506 5507 5511 5516 5522 5529 5535 5541 5548 5555 5562 5570 5577 5584 5591 5597 5604 5610 5616 5622 5628 5636 5640 5645 5651 5657 5662 5666 5670 5674 5678 5681 5686 5689 5692 5695 5697 5700 5703 5704 5702 5703 5706 5708 5711 5713 5715 5715 5716 5715 5716 5717 5718 5718
5501 5502 5504 5508 5513 5520 5527 5534 5541 5548 5555 5562 5570 5576 5583 5590 5596 5603 5609 5615 5622 5628 5634 5639 5645 5651 5657 5660 5664 5669 5671 5674 5677 5681 5682 5685 5689 5689 5691 5691 5691 5693 5695 5697 5699 5700 5700 5701 5702 5702 5703 5704 5704 5704
5496 5498 5500 5503 5507 5512 5519 5526 5534 5543 5550 5556 5563 5569 5576 5582 5589 5595 5602 5609 5615 5622 5628 5634 5639 5645 5650 5655 5658 5661 5664 5667 5669 5672 5675 5677 5679 5679 5681 5680 5681 5681 5682 5683 5685 5688 5688 5687 5688 5689 5690 5691 5691 5691
5490 5492 5495 5499 5503 5507 5513 5520 5528 5535 5542 5549 5556 5563 5570 5576 5583 5589 5596 5603 5609 5616 5622 5628 5634 5639 5644 5648 5651 5655 5658 5660 5662 5666 5667 5668 5666 5669 5669 5668 5667 5667 5668 5668 5670 5673 5675 5676 5676 5677 5678 5678 5679 5680
5484 5487 5490 5494 5498 5504 5509 5516 5523 5531 5537 5544 5551 5558 5565 5571 5577 5583 5590 5597 5603 5609 5615 5622 5629 5634 5639 5643 5646 5650 5652 5655 5657 5659 5660 5660 5658 5655 5653 5653 5652 5651 5651 5653 5655 5658 5660 5661 5664 5665 5666 5667 5667 5667
5479 5482 5486 5490 5495 5501 5506 5513 5520 5527 5534 5541 5548 5554 5560 5566 5573 5579 5585 5592 5599 5604 5610 5616 5623 5629 5635 5639 5642 5645 5648 5650 5650 5651 5650 5647 5645 5643 5639 5635 5632 5630 5630 5633 5638 5642 5646 5649 5651 5651 5653 5654 5654 5654
5475 5479 5484 5490 5495 5501 5506 5512 5519 5525 5531 5538 5545 5551 5557 5564 5569 5575 5581 5587 5593 5600 5606 5613 5619 5626 5631 5635 5638 5642 5643 5643 5643 5641 5638 5636 5634 5629 5626 5621 5615 5610 5609 5614 5624 5630 5634 5636 5639 5641 5642 5642 5642 5642
5477 5483 5486 5492 5497 5503 5509 5515 5521 5526 5532 5539 5545 5551 5557 5562 5568 5573 5578 5584 5590 5596 5603 5610 5616 5623 5628 5633 5636 5637 5637 5636 5635 5633 5630 5627 5624 5621 5617 5611 5602 5596 5597 5603 5615 5622 5627 5630 5631 5631 5632 5630 5631 5631
5491 5492 5494 5498 5501 5505 5512 5518 5524 5529 5535 5540 5546 5550 5556 5562 5567 5572 5576 5581 5588 5594 5602 5608 5614 5621 5627 5630 5631 5632 5632 5631 5630 5627 5623 5620 5619 5617 5612 5607 5601 5598 5600 5606 5614 5620 5622 5623 5625 5626 5626 5626 5626 5626
5503 5504 5504 5506 5509 5513 5519 5524 5529 5534 5538 5543 5548 5552 5557 5562 5567 5572 5576 5582 5589 5596 5602 5608 5615 5620 5624 5626 5627 5628 5628 5626 5625 5622 5619 5617 5615 5611 5612 5609 5608 5607 5609 5613 5616 5619 5621 5622 5623 5623 5623 5622 5622 5622
5517 5517 5517 5518 5521 5525 5529 5532 5536 5539 5543 5547 5551 5555 5560 5565 5570 5575 5581 5587 5593 5599 5605 5610 5615 5619 5622 5623 5625 5625 5625 5624 5622 5620 5619 5617 5616 5613 5610 5611 5613 5613 5615 5616 5618 5619 5620 5620 5620 5620 5619 5619 5619 5619
5530 5531 5531 5532 5533 5535 5538 5541 5543 5547 5551 5555 5558 5562 5567 5572 5577 5582 5588 5593 5598 5603 5607 5611 5615 5618 5621 5622 5623 5623 5623 5623 5623 5621 5620 5619 5618 5617 5616 5617 5617 5618 5617 5617 5617 5617 5617 5616 5616 5616 5616 5615 5614 5614
5546 5546 5547 5549 5549 5550 5552 5554 5555 5558 5560 5563 5567 5571 5576 5581 5585 5590 5594 5598 5602 5606 5609 5613 5616 5620 5622 5624 5624 5624 5624 5625 5624 5623 5621 5620 5619 5618 5617 5617 5617 5617 5617 5616 5616 5615 5615 5615 5614 5613 5612 5610 5609 5608
5559 5559 5560 5561 5562 5563 5565 5566 5568 5570 5572 5575 5577 5581 5586 5589 5591 5596 5601 5604 5606 5609 5613 5616 5620 5623 5624 5625 5625 5626 5625 5624 5624 5623 5622 5622 5621 5620 5619 5618 5618 5617 5616 5615 5614 5613 5612 5611 5610 5608 5607 5605 5604 5602
5570 5571 5571 5572 5573 5574 5576 5577 5580 5582 5583 5585 5588 5591 5594 5598 5600 5604 5606 5609 5613 5615 5618 5620 5622 5624 5625 5626 5626 5626 5626 5625 5625 5624 5623 5622 5621 5620 5619 5618 5616 5615 5614 5613 5612 5611 5609 5607 5605 5603 5601 5599 5597 5596
5583 5583 5584 5585 5587 5589 5590 5591 5592 5593 5594 5597 5598 5601 5604 5606 5608 5611 5613 5616 5619 5620 5622 5624 5625 5626 5627 5627 5627 5627 5627 5626 5625 5623 5623 5622 5620 5619 5618 5617 5615 5614 5612 5610 5609 5607 5604 5602 5600 5598 5596 5594 5592 5590
5598 5598 5598 5598 5600 5601 5602 5603 5604 5606 5606 5609 5610 5612 5613 5615 5616 5618 5619 5622 5624 5625 5626 5627 5628 5629 5629 5629 5629 5628 5628 5627 5626 5625 5623 5622 5620 5619 5617 5615 5613 5611 5609 5607 5605 5602 5600 5598 5596 5593 5591 5589 5586 5584
5609 5609 5610 5610 5611 5611 5611 5612 5614 5615 5616 5617 5618 5619 5620 5622 5623 5624 5625 5626 5628 5628 5629 5630 5630 5630 5630 5629 5628 5628 5627 5626 5625 5624 5623 5622 5620 5617 5615 5612 5610 5608 5605 5603 5601 5598 5596 5593 5590 5587 5585 5582 5580 5577
5620 5619 5620 5620 5620 5620 5621 5621 5622 5623 5624 5624 5624 5625 5626 5627 5628 5628 5629 5629 5630 5630 5631 5631 5631 5630 5630 5629 5628 5627 5626 5625 5623 5622 5620 5617 5615 5612 5609 5607 5604 5601 5598 5596 5593 5590 5588 5585 5582 5579 5576 5573 5570 5567
5629 5628 5629 5629 5629 5629 5629 5629 5629 5629 5629 5629 5630 5630 5630 5631 5631 5632 5632 5632 5632 5633 5632 5632 5632 5631 5630 5629 5627 5626 5624 5622 5620 5618 5616 5614 5611 5609 5606 5603 5601 5597 5594 5591 5587 5584 5581 5577 5574 5570 5567 5563 5560 5556
5637 5636 5636 5636 5635 5636 5635 5635 5635 5634 5634 5633 5634 5635 5635 5635 5635 5635 5635 5635 5634 5634 5634 5633 5632 5631 5629 5628 5626 5624 5622 5621 5619 5616 5613 5610 5607 5604 5601 5597 5594 5590 5586 5582 5578 5574 5570 5566 5562 5558 5554 5549 5545 5541
5645 5643 5643 5642 5642 5643 5641 5640 5639 5638 5638 5638 5639 5639 5639 5639 5638 5638 5638 5637 5637 5635 5634 5633 5632 5630 5629 5627 5625 5623 5621 5618 5615 5612 5608 5605 5601 5597 5593 5589 5585 5580 5576 5571 5567 5562 5557 5552 5547 5542 5538 5533 5529 5525
5650 5648 5648 5648 5649 5648 5647 5646 5645 5645 5645 5644 5644 5643 5642 5642 5641 5641 5640 5639 5638 5637 5635 5634 5632 5630 5628 5625 5622 5619 5615 5612 5608 5605 5601 5597 5594 5589 5585 5580 5575 5569 5564 5558 5553 5548 5543 5537 5531 5526 5521 5515 5510 5506
5656 5655 5655 5654 5653 5652 5651 5651 5651 5650 5649 5649 5648 5647 5646 5645 5645 5644 5643 5641 5639 5638 5636 5634 5631 5628 5625 5622 5618 5615 5611 5608 5604 5600 5595 5591 5586 5581 5575 5569 5563 5557 5551 5545 5539 5533 5527 5519 5512 5506 5500 5495 5490 5486
5661 5660 5659 5658 5657 5656 5655 5655 5654 5653 5652 5651 5650 5649 5648 5647 5646 5645 5643 5641 5639 5637 5634 5631 5628 5624 5621 5617 5613 5609 5605 5601 5596 5591 5585 5579 5573 5568 5562 5556 5550 5543 5536 5529 5522 5514 5507 5500 5493 5486 5480 5475 5470 5465
Wind_Speed
42 40 41 40 38 37 37 36 37 36 34 33 29 36 37 32 32 33 33 34 34 35 33 37 39 39 38 39 40 39 40 40 40 40 40 35 40 35 40 37 39 37 39 36 38 36 34 42 45 41 41 39 38 36
41 40 41 40 39 38 37 35 35 35 33 32 31 29 29 36 33 32 33 33 34 35 35 34 35 39 40 39 39 40 41 40 41 42 42 43 40 41 39 35 37 37 39 35 37 33 40 45 44 43 42 42 40 38
36 38 37 40 40 37 37 37 36 36 35 33 32 31 30 28 31 33 34 33 33 34 35 35 34 34 37 39 40 41 42 41 41 42 43 45 45 42 43 42 43 39 39 41 42 44 45 46 45 45 44 43 43 41
35 34 38 36 37 39 36 36 35 35 36 35 33 32 32 31 31 31 32 33 33 34 33 33 35 35 34 34 37 40 41 41 39 41 42 44 46 45 47 47 45 46 44 43 45 46 45 46 45 46 47 47 45 44
34 34 33 36 37 38 38 36 36 36 34 34 33 31 31 31 32 32 31 30 30 32 33 33 33 34 35 36 35 34 36 39 40 40 41 42 43 44 46 45 46 46 48 45 46 47 46 46 48 49 49 48 47 45
34 33 36 34 36 36 35 36 37 38 37 35 34 32 31 31 30 32 33 33 30 29 30 30 30 31 32 33 34 35 34 34 35 37 39 40 40 41 44 43 45 46 44 46 47 46 47 48 48 49 47 47 47 45
31 32 32 36 34 33 34 35 37 39 39 38 37 35 34 33 31 30 30 30 31 31 32 31 29 28 30 30 31 32 33 33 34 34 34 35 38 40 41 40 42 40 42 45 47 47 48 49 47 45 44 44 43 42
26 31 32 32 35 34 34 34 36 37 38 38 38 36 35 33 32 30 29 29 28 30 31 31 30 28 28 29 30 30 30 31 32 33 33 34 36 36 38 32 34 39 42 41 41 42 43 41 43 43 42 41 41 40
17 20 27 30 31 33 32 33 31 33 36 37 37 37 35 35 33 32 31 30 29 28 28 30 28 26 28 29 30 30 31 31 31 32 33 34 35 37 33 35 36 37 38 39 39 39 40 41 41 41 41 39 38 38
12 13 17 24 29 31 34 32 32 30 29 30 33 35 34 33 32 31 31 32 31 31 29 28 27 25 23 23 25 28 30 31 32 32 33 34 34 35 35 37 39 40 41 41 41 41 41 41 41 41 39 38 37 36
15 14 12 17 21 27 30 33 33 31 30 30 30 30 31 32 31 31 31 31 31 31 31 29 27 24 22 20 20 22 25 27 30 33 31 33 33 35 35 39 41 43 44 44 44 43 42 43 43 43 41 41 40 38
15 16 15 16 19 22 25 27 27 28 29 30 30 29 30 30 31 32 31 30 30 31 31 31 28 24 22 20 20 21 21 23 25 24 26 27 33 31 34 38 42 44 45 46 47 46 44 42 40 40 38 38 36 36
12 12 15 17 17 23 24 25 25 25 26 26 26 26 26 26 28 30 31 29 29 28 29 30 29 27 23 22 21 21 21 21 21 21 22 26 30 35 39 41 44 46 46 47 46 45 42 40 38 35 34 35 36 39
10 15 16 16 17 18 21 24 25 24 24 24 22 21 22 24 23 23 24 27 28 28 25 26 29 28 25 23 22 21 21 19 21 24 30 36 38 41 45 48 51 52 53 50 45 43 41 41 40 39 37 38 38 36
7 11 16 19 18 18 18 19 19 20 21 21 22 22 21 19 18 19 21 23 25 29 27 24 25 27 26 23 20 17 17 22 26 32 36 36 31 32 36 40 40 42 42 41 39 32 33 34 34 35 36 37 35 33
19 19 22 21 19 21 22 22 20 20 19 20 20 20 20 19 20 18 20 25 26 28 27 23 25 26 24 20 15 18 20 25 25 21 22 24 22 25 26 28 34 30 25 22 26 25 25 26 31 28 24 20 17 18
26 24 21 19 20 23 23 21 21 19 19 19 18 19 20 19 21 20 20 27 29 28 27 23 25 23 19 18 14 14 15 16 19 17 17 19 16 9 6 1 6 12 10 11 13 16 15 14 13 15 15 16 19 19
32 30 25 23 22 24 24 24 22 19 19 18 17 17 20 20 18 17 20 26 26 26 26 24 23 19 14 13 13 12 12 10 8 10 10 4 2 4 8 11 9 13 15 9 10 9 7 9 11 8 13 12 13 15
28 29 31 33 34 30 26 26 24 22 21 21 22 24 24 23 23 25 27 27 26 24 22 19 17 15 13 7 9 5 5 3 2 7 4 10 6 10 8 13 5 9 7 5 5 4 5 8 7 9 11 13 16 18
43 41 37 35 32 33 34 34 34 33 33 33 34 34 34 35 34 31 28 24 20 18 19 19 17 20 17 9 4 1 1 1 1 5 3 6 6 6 8 7 5 3 0 1 4 7 9 11 11 12 15 16 18 19
34 34 36 36 36 34 34 34 37 37 38 38 39 37 35 34 31 27 24 22 21 20 19 19 18 15 10 7 4 2 2 2 3 3 2 4 4 5 6 5 3 3 5 7 8 9 10 11 13 15 16 18 18 18
31 32 29 26 25 28 28 32 33 32 34 37 40 41 38 34 32 29 23 17 19 16 16 14 12 9 6 2 4 3 2 3 2 1 3 4 4 4 4 5 6 7 8 9 11 12 12 12 13 14 14 15 16 17
30 36 36 33 34 35 39 43 37 34 30 29 27 26 28 34 35 33 24 20 19 17 13 11 11 11 11 9 6 5 3 2 2 2 3 4 5 6 8 8 8 9 9 9 10 11 12 14 15 16 15 15 15 15
39 36 32 26 23 25 30 25 25 27 24 24 30 38 31 31 37 30 20 19 19 16 15 13 11 10 9 8 7 6 5 5 4 5 6 7 8 9 9 10 10 10 11 11 12 13 14 15 16 15 16 16 15 14
34 35 32 31 32 30 24 23 25 26 25 24 19 17 21 21 16 18 21 19 15 13 9 7 6 5 6 6 6 6 6 5 5 6 7 8 10 12 12 12 13 14 15 16 17 16 16 16 18 19 19 17 16 16
30 31 30 28 26 23 22 23 24 22 21 18 19 18 18 17 15 15 16 13 10 7 6 7 6 6 7 7 7 7 7 6 6 7 7 8 11 14 16 18 18 17 17 16 17 18 19 20 21 22 21 20 21 24
27 26 25 25 24 24 24 22 21 19 17 15 16 18 16 13 12 12 11 11 9 9 8 7 7 6 6 7 7 7 7 7 8 9 11 14 16 17 16 17 18 20 21 21 22 22 23 24 25 26 27 29 31 33
25 25 23 23 21 20 19 17 15 14 14 14 14 14 12 11 12 12 11 10 9 9 9 9 9 9 10 11 11 11 11 11 13 14 15 16 17 19 20 21 22 23 25 26 27 28 29 31 32 34 35 36 38 38
24 25 23 23 22 20 19 17 16 17 17 19 17 14 13 14 14 15 14 13 12 10 9 9 9 10 10 11 12 12 12 12 14 17 19 21 23 25 26 28 29 31 32 34 35 36 37 38 39 40 42 43 44 44
21 24 23 22 19 16 16 16 17 19 19 17 15 14 14 14 13 13 11 10 9 10 10 11 11 11 11 12 13 14 15 17 19 21 23 26 27 29 31 32 34 34 36 37 38 40 41 43 45 46 46 46 45 46
19 21 17 14 12 13 15 15 16 17 17 16 15 14 12 11 10 9 9 10 10 9 9 10 12 14 16 17 19 21 24 25 26 26 26 28 30 31 34 35 38 40 41 43 44 45 45 46 47 46 45 46 46 49
17 16 14 13 13 14 14 14 14 13 13 12 11 11 10 10 10 9 8 9 10 12 13 15 16 18 21 24 25 25 25 26 26 28 29 32 34 36 38 39 41 43 45 47 49 49 47 45 46 47 49 49 50 51
11 12 14 14 13 13 12 11 9 10 11 11 11 12 12 11 11 11 12 12 13 15 17 20 23 25 26 27 27 28 28 29 31 34 36 39 40 41 43 46 48 49 49 49 50 50 49 49 48 48 47 47 48 48
Wind_Direction
265 260 258 256 253 250 247 244 244 246 247 254 242 228 220 226 230 230 230 228 227 229 232 228 228 225 224 223 223 226 227 225 226 228 228 230 229 236 237 236 240 236 237 237 234 238 244 247 255 258 259 265 268 270
262 262 254 252 251 248 245 244 240 241 241 239 243 246 234 219 226 229 230 229 228 227 228 231 229 230 229 227 226 227 230 229 229 230 233 236 238 238 242 241 239 239 233 229 237 240 249 252 260 264 266 268 269 269
262 255 257 252 248 246 243 243 240 238 239 238 236 235 235 234 225 228 229 230 230 230 230 230 230 230 231 231 230 231 231 231 231 233 233 236 238 239 243 243 246 245 245 245 244 249 251 257 260 263 265 266 269 273
260 254 249 249 250 246 240 239 239 237 237 238 236 235 233 229 229 228 227 228 229 230 230 231 232 232 232 232 232 233 234 236 235 234 236 237 240 241 243 246 249 249 250 251 253 256 257 259 262 264 267 271 274 277
259 252 247 245 243 247 239 234 235 235 233 232 232 232 232 231 228 228 227 225 226 230 231 231 232 233 234 235 235 234 235 238 241 240 240 239 241 242 245 247 250 251 253 253 253 257 259 262 264 266 270 273 276 278
256 253 245 244 241 241 237 234 231 231 231 229 228 230 231 231 230 229 229 229 229 229 232 231 232 235 235 235 236 237 238 239 241 243 244 246 247 247 247 248 250 253 255 256 258 258 260 261 263 265 268 271 274 276
253 249 245 240 239 236 236 235 232 229 227 229 228 227 229 229 229 230 229 229 229 231 232 232 231 233 236 238 239 238 238 240 242 244 246 247 248 251 253 254 257 258 257 256 257 259 260 263 266 268 270 271 273 273
254 247 242 237 233 231 231 228 227 226 223 223 225 225 224 225 224 225 227 227 227 229 231 233 234 234 236 239 240 240 242 242 243 245 247 250 252 254 255 257 257 256 258 259 260 263 265 266 268 268 268 269 270 270
258 250 237 232 228 225 227 224 220 222 224 224 223 222 222 222 222 223 224 225 224 227 229 230 230 230 232 235 239 242 244 245 247 249 251 252 255 256 258 257 257 259 262 264 265 265 265 266 265 265 267 266 265 265
256 246 234 229 226 222 219 219 214 212 214 217 221 222 222 219 220 221 222 223 225 225 225 226 226 226 228 233 236 240 244 248 251 252 256 256 258 261 261 263 264 264 263 263 264 265 265 265 265 266 267 268 268 266
248 246 238 226 221 220 218 217 216 216 217 217 216 217 217 218 218 220 221 221 223 224 224 226 226 226 228 233 236 239 242 246 250 254 256 262 262 261 263 264 265 265 264 264 263 262 263 265 266 268 268 268 269 268
246 233 226 219 213 207 209 212 212 212 214 213 213 214 215 216 218 219 221 222 223 224 223 224 226 228 230 234 238 240 240 244 250 259 258 263 264 269 268 265 262 261 261 262 262 261 260 260 261 263 265 267 265 267
229 219 214 212 206 204 205 202 203 205 206 207 208 209 209 211 215 216 216 217 217 216 220 221 222 222 226 233 236 238 241 246 255 262 269 276 280 275 274 274 272 269 266 263 261 261 261 260 261 261 262 264 267 268
219 206 191 186 189 190 194 200 203 205 205 203 202 204 203 203 204 204 207 210 209 209 210 214 213 215 219 224 230 238 247 261 271 281 280 278 279 280 279 277 274 270 263 258 256 257 258 261 263 263 263 263 274 276
130 164 178 176 164 158 162 169 173 177 183 184 182 183 187 190 193 198 203 203 204 205 205 205 207 209 214 222 229 242 259 272 278 280 281 283 285 282 284 287 287 277 266 259 248 247 249 253 257 262 268 273 271 273
121 118 120 135 153 163 156 151 151 162 168 168 172 176 180 180 180 185 190 192 193 198 198 197 196 201 213 221 231 249 268 278 277 281 282 282 285 288 289 293 291 282 261 229 221 236 248 260 262 265 261 266 255 256
81 101 115 133 130 145 158 161 162 167 167 171 177 180 181 179 180 181 189 189 191 191 189 184 189 193 199 212 236 255 263 278 269 284 290 280 292 276 251 39 73 91 103 152 201 226 237 239 238 243 258 257 258 264
88 93 98 106 120 129 131 140 149 159 169 171 169 173 175 179 181 180 172 169 168 173 174 175 177 180 188 202 217 228 254 269 278 301 305 331 228 285 158 87 95 106 100 112 139 160 191 218 231 250 268 262 268 269
88 92 94 100 110 115 119 126 130 133 136 139 137 136 137 140 143 143 144 146 149 150 155 161 163 160 154 173 191 196 197 219 341 21 106 142 109 89 98 110 130 127 107 117 153 220 256 267 262 254 252 259 269 275
90 88 89 94 102 108 109 111 113 113 115 118 120 122 121 120 121 124 127 132 139 145 143 146 142 144 160 149 141 58 111 108 40 358 41 131 126 88 91 95 99 129 174 289 281 273 266 270 273 273 273 276 280 283
63 62 74 80 86 94 103 109 111 114 118 119 118 117 114 113 114 116 122 129 136 137 128 124 126 134 118 112 96 31 13 320 354 8 46 70 93 73 63 51 24 330 297 291 289 285 284 284 284 289 288 286 284 283
67 70 77 81 87 96 97 106 107 110 112 116 117 108 106 108 108 100 105 118 126 130 129 126 119 128 128 114 95 97 74 68 64 29 18 10 10 355 340 324 309 304 301 300 297 296 296 296 293 287 284 286 289 292
71 86 85 91 99 104 108 104 93 94 102 102 96 87 94 106 100 90 88 110 118 118 121 110 89 92 106 106 100 81 46 49 25 1 8 349 343 349 334 323 316 310 302 297 295 295 299 299 299 298 297 297 297 299
88 92 95 90 93 95 102 94 80 82 86 91 102 110 97 100 112 97 105 116 114 107 105 108 108 99 82 80 84 75 60 49 22 5 357 352 354 358 347 336 328 320 313 307 304 307 309 309 306 302 301 297 296 296
93 94 91 97 102 104 92 78 90 101 104 109 114 107 100 118 113 110 107 110 113 112 110 104 99 88 82 85 72 68 57 45 35 23 13 0 349 342 337 329 321 315 312 310 307 304 302 302 303 300 296 290 287 289
89 86 85 86 92 98 96 95 100 102 103 98 98 100 103 107 112 112 109 104 100 95 90 99 92 72 70 57 51 51 49 34 11 355 341 336 333 328 324 321 318 316 315 312 311 310 307 305 307 304 298 290 286 289
84 81 80 85 90 99 102 103 101 100 97 96 100 100 93 96 99 96 93 92 94 94 91 85 76 59 49 51 42 27 15 8 359 347 338 333 331 334 336 335 334 331 328 323 318 313 307 303 300 297 294 290 289 288
88 87 89 89 86 88 92 95 99 102 102 101 95 88 92 93 93 93 93 92 93 93 90 80 66 45 28 16 7 2 357 354 351 350 349 345 340 335 329 323 318 313 310 308 305 302 301 301 299 298 296 294 293 292
81 82 84 85 86 87 89 93 96 96 93 88 84 85 88 91 92 92 89 82 71 61 52 42 30 17 9 2 359 356 353 348 340 333 329 327 325 322 319 317 316 314 313 311 309 306 303 300 297 294 293 293 293 294
82 80 75 72 73 74 79 84 85 85 85 85 88 89 88 86 82 76 70 65 55 44 33 25 19 12 5 358 350 341 332 329 326 324 322 320 319 320 319 319 318 316 314 312 310 308 306 304 302 301 299 297 296 295
71 69 69 68 71 76 78 80 84 84 83 79 74 70 67 66 65 58 50 44 38 34 26 15 5 357 348 341 336 330 327 326 327 328 327 326 325 323 321 320 319 318 318 317 316 314 311 308 306 304 299 293 289 285
68 65 62 64 69 70 75 80 83 77 68 63 63 67 73 73 68 62 49 31 17 5 355 350 347 347 349 347 343 338 334 331 329 328 325 324 322 321 320 320 320 318 317 317 314 314 314 308 302 297 293 290 288 287
54 53 54 53 53 54 59 64 62 55 51 53 56 51 44 36 28 18 8 1 356 353 352 349 345 343 343 341 338 336 334 331 330 329 327 325 324 324 323 322 321 320 319 317 316 316 315 312 306 303 301 300 297 294